Location: Newark
(31.1622°N, 59.7161°E)
Time: 18:16:31
(UTC+00:00)

Envisat - Visible Passes

Search period start: 16 July 2019 00:00
Search period end: 26 July 2019 00:00
Orbit: 764 x 766 km, 98.1° (Epoch: 16 July)

Date Brightness Start Highest point End Pass type
(mag) Time Alt. Az. Time Alt. Az. Time Alt. Az.
18 Jul 5.7 15:37:23 10° SW 15:40:39 17° W 15:43:55 10° NW visible
21 Jul 5.5 15:25:26 10° SSW 15:29:20 22° W 15:33:15 10° NW visible
23 Jul 6.0 15:53:27 10° WSW 15:55:02 11° W 15:56:38 10° WNW visible
